TimeCDT,TemperatureF,Dew PointF,Humidity,Sea Level PressureIn,VisibilityMPH,Wind Direction,Wind SpeedMPH,Gust SpeedMPH,PrecipitationIn,Events,Conditions,WindDirDegrees,DateUTC
12:52 AM,73.0,64.9,76,29.74,9.0,SSE,19.6,27.6,N/A,,Clear,150,2013-04-17 05:52:00
1:52 AM,72.0,64.0,76,29.72,8.0,SSE,23.0,31.1,N/A,,Clear,160,2013-04-17 06:52:00
2:52 AM,70.0,64.0,81,29.70,8.0,SSE,24.2,-,N/A,,Clear,160,2013-04-17 07:52:00
3:52 AM,71.1,66.0,84,29.68,6.0,South,20.7,29.9,N/A,,Haze,170,2013-04-17 08:52:00
4:52 AM,71.1,66.0,84,29.68,6.0,SSE,18.4,26.5,N/A,,Haze,160,2013-04-17 09:52:00
5:52 AM,72.0,66.9,84,29.67,6.0,SSE,17.3,27.6,N/A,,Haze,160,2013-04-17 10:52:00
6:52 AM,73.0,68.0,84,29.66,7.0,South,21.9,28.8,N/A,,Clear,170,2013-04-17 11:52:00
7:52 AM,73.0,69.1,87,29.66,6.0,SSE,21.9,29.9,N/A,,Clear,160,2013-04-17 12:52:00
8:52 AM,75.9,69.1,79,29.65,6.0,South,25.3,35.7,N/A,,Haze,170,2013-04-17 13:52:00
9:52 AM,79.0,69.1,72,29.65,5.0,South,27.6,35.7,N/A,,Haze,170,2013-04-17 14:52:00
10:52 AM,81.0,68.0,65,29.64,5.0,South,28.8,36.8,N/A,,Haze,170,2013-04-17 15:52:00
11:52 AM,84.9,68.0,57,29.61,6.0,South,24.2,33.4,N/A,,Haze,170,2013-04-17 16:52:00
12:52 PM,87.1,66.0,49,29.60,6.0,South,18.4,32.2,N/A,,Haze,180,2013-04-17 17:52:00
1:52 PM,87.1,66.0,49,29.58,6.0,South,21.9,32.2,N/A,,Haze,180,2013-04-17 18:52:00
2:52 PM,90.0,64.9,43,29.54,7.0,SSE,23.0,33.4,N/A,,Scattered Clouds,160,2013-04-17 19:52:00
4:52 PM,88.0,66.0,48,29.49,7.0,SSE,26.5,38.0,N/A,,Clear,160,2013-04-17 21:52:00
5:52 PM,84.9,66.0,53,29.47,8.0,SSE,23.0,34.5,N/A,,Clear,160,2013-04-17 22:52:00
6:52 PM,82.0,66.0,58,29.47,8.0,SSE,27.6,36.8,N/A,,Clear,150,2013-04-17 23:52:00
7:52 PM,80.1,64.0,58,29.46,8.0,SSE,27.6,41.4,N/A,,Clear,160,2013-04-18 00:52:00
8:52 PM,79.0,64.0,60,29.47,9.0,SSE,25.3,36.8,N/A,,Clear,160,2013-04-18 01:52:00
9:52 PM,77.0,64.9,66,29.49,9.0,SSE,20.7,32.2,N/A,,Clear,160,2013-04-18 02:52:00
10:52 PM,73.9,66.9,79,29.51,10.0,SSE,21.9,31.1,N/A,,Clear,160,2013-04-18 03:52:00
11:52 PM,73.0,66.0,79,29.52,9.0,South,15.0,26.5,N/A,,Clear,170,2013-04-18 04:52:00